Regional Weather Roundup
Issued by NWS

Home | Current Version | Previous Version | Graphics & Text | Print | Product List | Glossary On
Versions: 1 2 3 4 5 6 7 8 9 10 11 12 13 14 15 16 17 18 19 20 21 22 23 24 25 26 27 28 29 30 31 32 33 34 35 36 37 38 39 40 41 42 43 44 45 46 47 48 49 50
000
ASUS43 KLOT 251500
RWRIL

ILLINOIS REGIONAL WEATHER ROUNDUP
NATIONAL WEATHER SERVICE CHICAGO/ROMEOVILLE IL
900 AM CST SUN JAN 25 2015

NOTE: "FAIR" INDICATES FEW OR NO CLOUDS BELOW 12,000 FEET WITH NO
SIGNIFICANT WEATHER AND/OR OBSTRUCTIONS TO VISIBILITY.

* THESE STATIONS ARE NOT UNDER NWS QUALITY CONTROL. THEY ALSO MAY NOT
  REPORT WEATHER SUCH AS PRECIPITATION OR FOG.

ILZ001-002-007-009-015-016-024-251600-
NORTHWEST ILLINOIS

CITY           SKY/WX    TMP DP  RH WIND       PRES   REMARKS
MOLINE         SNOW      31  29  92 NE18G26   29.71R VSB 1/2 WCI  19
STERLING*      CLOUDY    30  27  86 E23G29    29.74R VSB 1   WCI  17
$$

ILZ003-004-008-010-011-017-018-251600-
NORTH CENTRAL ILLINOIS

CITY           SKY/WX    TMP DP  RH WIND       PRES   REMARKS
ROCKFORD       LGT SNOW  28  23  81 NE22G28   29.80R VSB 1   WCI  14
$$

ILZ005-006-012>014-019>023-251600-
NORTHEAST ILLINOIS

CITY           SKY/WX    TMP DP  RH WIND       PRES   REMARKS
CHICAGO-OHARE  LGT SNOW  31  29  92 NE18G25   29.76R FOG     WCI  19
CHICAGO-MIDWAY LGT SNOW  34  32  92 NE22      29.75R FOG     WCI  22
AURORA         LGT SNOW  32  27  81 NE24G30   29.73R WCI  19
WAUKEGAN       LGT SNOW  28  25  88 N16G26    29.81R VSB 1   WCI  16
DUPAGE AIRPORT LGT SNOW  31  28  89 NE17G24   29.75R VSB 3/4 WCI  19
WHEELING       LGT SNOW  31  29  92 NE16      29.80R FOG     WCI  20
NORTHERLY ISL    N/A     33  31  92 NE22        N/A  WCI  21
$$

LMZ740>746-251600-
SOUTHERN LAKE MICHIGAN

STATION/POSITION SKY/WX   TEMP    WIND        PRES    VSBY  WAVE
                          AIR SEA DIR/SP/G                  HT/PER
                          (F)     (DEG/KT/KT) (MB)    (MI)  (FT/S)
WAUKEGAN HARBOR            29      30/ 26/ 33   N/A
HARRISON CRIB              33      40/ 25/ 29   N/A
BURNHAM HARBOR             33      40/ 19/ 19   N/A
CALUMET HARBOR             34      20/ 12/ 18   N/A
MICHIGAN CITY              34      50/ 13/ 16   N/A
$$

ILZ025>027-034>036-040-047-049-050-058-095>099-251600-
WEST-CENTRAL ILLINOIS

CITY           SKY/WX    TMP DP  RH WIND       PRES   REMARKS
QUINCY         LGT RAIN  39  38  96 NE7       29.58S FOG     WCI  34
$$

ILZ028>032-037-038-041>044-048-051>054-059>061-251600-
CENTRAL ILLINOIS

CITY           SKY/WX    TMP DP  RH WIND       PRES   REMARKS
DECATUR        LGT RAIN  38  37  97 E6        29.61S FOG     WCI  33
PEORIA         LGT RAIN  36  33  89 NE15      29.65R FOG     WCI  27
SPRINGFIELD    LGT RAIN  42  39  89 NE9       29.60S
TAYLORVILLE    NOT AVBL
$$

ILZ033-039-045-046-055>057-062-063-251600-
EAST-CENTRAL ILLINOIS

CITY           SKY/WX    TMP DP  RH WIND       PRES   REMARKS
CHAMPAIGN      LGT RAIN  35  33  92 NE8       29.62S FOG     WCI  29
MATTOON        LGT RAIN  38  36  92 S7        29.61R FOG     WCI  33
$$

ILZ079-100>102-251600-
SOUTHWEST ILLINOIS

CITY           SKY/WX    TMP DP  RH WIND       PRES   REMARKS
BELLEVILLE     CLOUDY    42  42  99 S5        29.58F
CAHOKIA*       CLOUDY    45  43  93 S3        29.58S
$$

ILZ064>066-069>071-074>076-080>082-084>086-088>090-092>094-251600-
SOUTH-CENTRAL ILLINOIS

CITY           SKY/WX    TMP DP  RH WIND       PRES   REMARKS
CARBONDALE     LGT RAIN  41  37  86 S9        29.63S
MARION         LGT RAIN  41  39  93 S9        29.64F
MT. VERNON     CLOUDY    41  36  81 S7        29.62F
$$

ILZ067-068-072-073-078-083-087-091-251600-
SOUTHEAST ILLINOIS

CITY           SKY/WX    TMP DP  RH WIND       PRES   REMARKS
LAWRENCEVILLE  LGT RAIN  40  34  79 S9        29.65S
$$

ABBREVIATIONS USED IN REMARKS
   TC - TEMPERATURE IN CELSIUS
  WCI - WIND CHILL INDEX
   HX - HEAT INDEX
  VSB - VISIBILITY
$$



USA.gov is the U.S. government's official web portal to all federal, state and local government web resources and services.